Weather Roundup
Issued by NWS Springfield, MO

Home | Current Version | Previous Version | Text Only | Print | Product List | Glossary On
Versions: 1 2 3 4 5 6 7 8 9 10 11 12 13 14 15 16 17 18 19 20 21 22 23 24 25 26 27 28 29 30 31 32 33 34 35 36 37 38 39 40 41 42 43 44 45 46 47 48 49 50
000
NZUS99 KSGF 292107
HRRSGF

HOURLY WEATHER
NATIONAL WEATHER SERVICE SPRINGFIELD MO
400 PM CDT SUN MAR 29 2015

......SGF CWA......

CITY           SKY/WX    TMP DP  RH WIND       PRES   REMARKS
SPRINGFIELD    CLOUDY    59  43  55 NW16G24   30.01R
JOPLIN         CLOUDY    58  43  57 W9        30.04F
WEST PLAINS    MOSUNNY   61  42  49 SW8       30.00F
ROLLA          CLOUDY    56  39  53 W14       29.97R
OSAGE BEACH    CLOUDY    57  37  47 W9        30.00R
BRANSON        PTSUNNY   68  41  37 NW9G18    29.98F

......SURROUNDING SGF CWA......

CITY           SKY/WX    TMP DP  RH WIND       PRES   REMARKS
CHANUTE        PTSUNNY   68  42  38 N8        30.01F
PARSONS        MOSUNNY   64  45  49 CALM      30.04S
COFFEYVILLE    PTSUNNY   62  44  51 CALM      30.03F
EMPORIA        PTSUNNY   72  37  28 NW21G32   30.01S
GROVE OK       CLOUDY    63  43  48 NW6       30.05S
ROGERS AR      PTSUNNY   66  45  46 W8G18     30.01S
SILOAM SPRINGS PTSUNNY   64  45  48 W9        30.02F
HARRISON AR    SUNNY     72  43  35 W8        29.96F
NEAR YELLVILLE SUNNY     66  43  42 SE7       29.96F

......KANSAS AND MISSOURI......

CITY           SKY/WX    TMP DP  RH WIND       PRES   REMARKS
KANSAS CTY INT PTSUNNY   68  41  37 NW21G32   29.98R
DOWNTOWN KC    LGT RAIN  69  39  33 NW20G31   29.96F
COLUMBIA       PTSUNNY   57  40  52 W14       29.98S
SEDALIA        PTSUNNY   60  41  49 W10G21    29.99R
ST JOSEPH      MOSUNNY   65  42  43 NW26G35   30.00R
ST LOUIS       LGT RAIN  57  40  52 W7        29.96R
SPIRIT OF STL  LGT RAIN  55  42  61 SW9       29.95S
KIRKSVILLE     CLOUDY    61  42  49 W16G23    29.91F
WICHITA        MOSUNNY   72  29  20 N21G30    30.04S
TOPEKA           N/A     70  41  34 NW25G33   30.01S
OLATHE         CLOUDY    66  40  38 NW14G23   29.98S

......TENNESSEE......

CITY           SKY/WX    TMP DP  RH WIND       PRES   REMARKS
MEMPHIS        SUNNY     69  47  45 S17G24    30.06F
NASHVILLE      CLOUDY    62  30  29 S15G22    30.13F

......ARKANSAS.......

CITY           SKY/WX    TMP DP  RH WIND       PRES   REMARKS
FAYETTEVILLE   MOSUNNY   66  48  52 W8        30.01R
FT SMITH       MOSUNNY   70  45  40 NE7       30.01R
LITTLE ROCK    SUNNY     77  47  34 S10G17    30.01F

......OKLAHOMA.......

CITY           SKY/WX    TMP DP  RH WIND       PRES   REMARKS
TULSA          CLOUDY    68  46  45 NW6       30.03R
PONCA CITY     MOSUNNY   77  40  26 N18G28    30.03R
MCALESTER      SUNNY     79  49  34 SW8       30.00F
OKLAHOMA CITY  MOSUNNY   76  47  35 N14       30.03R

......IOWA............

CITY           SKY/WX    TMP DP  RH WIND       PRES   REMARKS
DES MOINES     MOSUNNY   61  36  39 NW28G37   29.92R
QUAD CITIES    CLOUDY    55  40  56 SW14      29.79F

......ILLINOIS........

CITY           SKY/WX    TMP DP  RH WIND       PRES   REMARKS
QUINCY         PTSUNNY   57  38  48 W16G22    29.92R
CHICAGO        PTSUNNY   41  30  65 SW20G29   29.80F




USA.gov is the U.S. government's official web portal to all federal, state and local government web resources and services.